Latest Weather Observations for Hogan Island

IDV60801

Issued at 5:02 pm EST Monday 27 April 2015 (issued every 30 minutes, with the page automatically refreshed every 10 minutes)

About weather observations | Map of weather stations | Latest weather observations for VIC | Other Formats
Station Details ID: 200838 Name: HOGAN ISLAND Lat: -39.22 Lon: 146.98 Height: 116.0 m
Data from the previous 72 hours. | See also: Recent months at Hogan Island
Date/Time
EST
Temp
°C
App
Temp
°C
Dew
Point
Rel
Hum
%
Delta-T
°C
Wind Press
QNH
hPa
Press
MSL
hPa
Rain
since 9 am
mm
Dir
 
Spd
km/h
Gust
km/h
Spd
kts
Gust
kts
27/05:00pm 12.7 2.9 7.2 69 2.7 WSW 48 56 26 30 1020.7 - 0.0
27/04:30pm 12.8 2.6 7.0 68 2.8 WSW 50 57 27 31 1020.5 - 0.0
27/04:00pm 13.1 3.9 8.2 72 2.4 SW 46 54 25 29 1020.4 - 0.0
27/03:30pm 13.3 4.1 8.0 70 2.6 WSW 46 56 25 30 1020.3 - 0.0
27/03:00pm 13.4 4.8 8.0 70 2.7 WSW 43 56 23 30 1020.1 1020.0 0.0
27/02:30pm 13.6 4.8 8.0 69 2.8 WSW 44 54 24 29 1019.9 - 0.0
27/02:00pm 13.9 4.6 7.4 65 3.2 WSW 46 57 25 31 1019.7 - 0.0
27/01:30pm 14.4 5.5 7.7 64 3.3 WSW 44 56 24 30 1019.5 - 0.0
27/01:00pm 14.6 5.4 8.1 65 3.3 WSW 46 54 25 29 1019.6 - 0.0
27/12:30pm 14.5 5.0 8.5 67 3.0 WSW 48 57 26 31 1019.7 - 0.0
27/12:00pm 14.6 5.5 8.3 66 3.2 WSW 46 56 25 30 1020.0 1019.9 0.0
27/11:30am 14.3 5.0 7.6 64 3.3 WSW 46 59 25 32 1020.1 - 0.0
27/11:00am 13.5 4.2 7.5 67 3.0 WSW 46 54 25 29 1020.3 - 0.0
27/10:30am 14.1 5.4 7.9 66 3.1 WSW 43 50 23 27 1020.3 - 0.0
27/10:00am 13.6 4.6 7.2 65 3.1 SW 44 54 24 29 1020.1 - 0.0
27/09:30am 13.1 3.7 7.1 67 2.9 SW 46 56 25 30 1019.9 - 0.0
27/09:00am 13.1 3.6 6.9 66 3.0 SW 46 57 25 31 1019.6 1019.6 0.8
27/08:30am 12.6 2.4 7.1 69 2.7 WSW 50 59 27 32 1019.3 - 0.8
27/08:00am 12.7 2.4 6.7 67 2.9 SW 50 61 27 33 1019.0 - 0.8
27/07:30am 12.2 1.7 7.3 72 2.4 WSW 52 63 28 34 1018.6 - 0.8
27/07:00am 12.3 1.8 7.2 71 2.5 WSW 52 61 28 33 1018.3 - 0.8
27/06:30am 12.1 1.9 6.8 70 2.5 SW 50 59 27 32 1018.0 - 0.8
27/06:00am 12.1 0.7 6.8 70 2.5 SW 56 63 30 34 1017.7 1017.7 0.8
27/05:30am 11.4 0.9 7.3 76 2.0 SW 52 65 28 35 1017.6 - 0.8
27/05:00am 12.3 1.8 7.4 72 2.4 SW 52 63 28 34 1017.4 - 0.8
27/04:30am 12.3 1.3 7.0 70 2.6 SW 54 67 29 36 1017.0 - 0.8
27/04:00am 12.1 1.1 6.8 70 2.5 SW 54 63 29 34 1016.8 - 0.8
27/03:30am 12.1 1.1 6.8 70 2.5 SW 54 67 29 36 1016.6 - 0.8
27/03:00am 11.9 -0.5 6.4 69 2.6 SW 61 72 33 39 1016.3 1016.2 0.8
27/02:30am 11.9 -0.2 6.0 67 2.8 SW 59 70 32 38 1016.3 - 0.8
27/02:00am 12.3 0.4 6.8 69 2.6 WSW 59 70 32 38 1016.5 - 0.8
27/01:30am 11.9 0.3 6.8 71 2.4 SW 57 69 31 37 1016.4 - 0.8
27/01:00am 12.1 0.1 6.6 69 2.6 WSW 59 72 32 39 1016.1 - 0.8
27/12:30am 12.1 0.3 7.4 73 2.3 SW 59 76 32 41 1016.2 - 0.8
27/12:00am 12.2 1.0 7.7 74 2.2 SW 56 67 30 36 1016.2 1016.1 0.8
 
Date/Time
EST
Temp
°C
App
Temp
°C
Dew
Point
Rel
Hum
%
Delta-T
°C
Wind Press
QNH
hPa
Press
MSL
hPa
Rain
since 9 am
mm
Dir
 
Spd
km/h
Gust
km/h
Spd
kts
Gust
kts
26/11:30pm 12.2 1.3 8.7 79 1.8 SW 56 65 30 35 1016.3 - 0.8
26/11:00pm 11.9 1.0 8.9 82 1.5 SW 56 67 30 36 1016.2 - 0.8
26/10:30pm 12.0 2.1 9.9 87 1.1 SW 52 59 28 32 1016.2 - 0.8
26/10:03pm 11.4 0.7 9.5 88 1.0 WSW 56 74 30 40 1016.2 - 0.8
26/10:00pm 11.4 0.4 9.3 87 1.1 WSW 57 74 31 40 1016.2 - 0.8
26/09:30pm 12.0 1.6 9.4 84 1.3 WSW 54 63 29 34 1016.2 - 0.2
26/09:00pm 12.2 1.3 9.6 84 1.3 WSW 57 69 31 37 1016.0 1015.9 0.2
26/08:30pm 12.3 1.1 10.0 86 1.2 W 59 69 32 37 1016.0 - 0.2
26/08:19pm 12.0 2.9 9.9 87 1.1 WSW 48 67 26 36 1015.9 - 0.2
26/08:00pm 11.9 1.0 9.6 86 1.2 WSW 57 69 31 37 1015.9 - 0.2
26/07:33pm 12.0 0.5 7.3 73 2.3 WSW 57 82 31 44 1015.5 - 0.0
26/07:30pm 13.3 2.6 8.2 71 2.5 WSW 54 65 29 35 1015.8 - 0.0
26/07:03pm 12.9 1.9 8.4 74 2.3 WSW 56 74 30 40 1015.9 - 0.0
26/07:00pm 12.9 1.4 8.6 75 2.2 WSW 59 74 32 40 1015.9 - 0.0
26/06:30pm 12.2 0.7 8.5 78 1.8 WSW 59 70 32 38 1015.6 - 0.0
26/06:00pm 12.9 1.3 8.4 74 2.2 WSW 59 69 32 37 1015.5 1015.4 0.0
26/05:31pm 13.0 0.5 7.5 69 2.7 WSW 63 82 34 44 1015.2 - 0.0
26/05:30pm 12.8 -0.2 7.3 69 2.7 WSW 65 82 35 44 1015.2 - 0.0
26/05:00pm 12.9 2.0 9.0 77 2.0 WSW 56 69 30 37 1014.8 - 0.0
26/04:30pm 13.5 2.4 8.1 70 2.7 WSW 56 69 30 37 1014.7 - 0.0
26/04:00pm 12.9 2.0 8.8 76 2.1 WSW 56 70 30 38 1014.4 - 0.0
26/03:30pm 12.7 2.0 9.7 82 1.5 WSW 56 65 30 35 1014.4 - 0.0
26/03:08pm 13.1 0.9 8.8 75 2.2 WSW 63 85 34 46 1013.7 - 0.0
26/03:00pm 13.3 2.5 9.2 76 2.1 W 56 65 30 35 1014.0 1013.9 0.0
26/02:30pm 13.0 1.8 7.7 70 2.6 WSW 56 65 30 35 1014.2 - 0.0
26/02:00pm 13.7 2.3 7.7 67 3.0 WSW 57 69 31 37 1014.3 - 0.0
26/01:30pm 13.0 2.2 7.5 69 2.7 SW 54 65 29 35 1014.2 - 0.0
26/01:00pm 12.7 0.3 6.7 67 2.9 WSW 61 74 33 40 1014.0 - 0.0
26/12:30pm 13.3 0.4 7.5 68 2.9 WSW 65 76 35 41 1013.8 - 0.0
26/12:00pm 12.3 -0.3 7.2 71 2.5 WSW 63 76 34 41 1013.8 1013.7 0.0
26/11:30am 12.4 -0.1 7.7 73 2.3 WSW 63 74 34 40 1014.0 - 0.0
26/11:00am 11.7 -0.4 7.6 76 2.0 SW 61 74 33 40 1014.1 - 0.0
26/10:30am 11.5 -1.0 7.6 77 1.9 SW 63 74 34 40 1013.9 - 0.0
26/10:00am 11.7 -0.3 8.0 78 1.8 WSW 61 72 33 39 1013.8 - 0.0
26/09:30am 11.6 0.4 8.3 80 1.6 WSW 57 70 31 38 1013.7 - 0.0
26/09:00am 11.9 0.8 8.9 82 1.5 WSW 57 70 31 38 1013.5 1013.4 34.6
26/08:30am 12.0 2.0 9.2 83 1.4 WSW 52 61 28 33 1013.5 - 34.6
26/08:00am 12.0 2.1 9.6 85 1.2 WSW 52 59 28 32 1013.2 - 34.6
26/07:30am 12.0 2.1 9.9 87 1.1 WSW 52 57 28 31 1012.7 - 34.6
26/07:00am 11.9 2.5 10.1 89 0.9 WSW 50 59 27 32 1012.3 - 34.6
26/06:30am 12.4 2.5 11.0 91 0.7 WSW 54 59 29 32 1011.8 - 34.6
26/06:00am 12.9 3.9 11.6 92 0.7 WSW 50 57 27 31 1011.5 1011.4 34.6
26/05:30am 12.7 5.4 11.6 93 0.6 WSW 41 50 22 27 1011.4 - 34.6
26/05:00am 12.6 6.0 11.5 93 0.6 WSW 37 43 20 23 1011.4 - 34.6
26/04:30am 12.9 6.4 11.6 92 0.7 SW 37 44 20 24 1011.4 - 34.6
26/04:13am 12.9 6.4 11.6 92 0.7 SW 37 43 20 23 1011.2 - 34.6
26/04:00am 13.4 7.9 12.0 91 0.8 W 32 37 17 20 1011.1 - 34.4
26/03:30am 13.4 10.3 11.6 89 1.0 WNW 19 28 10 15 1011.0 - 34.0
26/03:00am 13.6 12.0 11.7 88 1.0 E 11 13 6 7 1011.1 1011.0 31.6
26/02:30am 13.4 11.1 11.6 89 1.0 ESE 15 17 8 9 1011.1 - 31.6
26/02:00am 13.0 10.6 11.4 90 0.9 ESE 15 17 8 9 1011.2 - 31.6
26/01:30am 13.4 9.8 11.8 90 0.9 E 22 26 12 14 1011.1 - 31.6
26/01:00am 13.6 10.1 12.2 91 0.8 ESE 22 28 12 15 1011.2 - 31.6
26/12:30am 13.7 8.3 12.3 91 0.8 ESE 32 37 17 20 1011.1 - 31.6
26/12:00am 13.6 8.6 12.3 92 0.7 ESE 30 35 16 19 1010.9 1010.8 31.6
 
Date/Time
EST
Temp
°C
App
Temp
°C
Dew
Point
Rel
Hum
%
Delta-T
°C
Wind Press
QNH
hPa
Press
MSL
hPa
Rain
since 9 am
mm
Dir
 
Spd
km/h
Gust
km/h
Spd
kts
Gust
kts
25/11:30pm 13.4 8.0 12.3 93 0.6 ESE 32 39 17 21 1010.6 - 31.6
25/11:00pm 13.6 7.7 12.5 93 0.6 ESE 35 41 19 22 1010.9 - 31.6
25/10:30pm 13.5 8.2 12.6 94 0.5 ESE 32 41 17 22 1010.9 - 31.6
25/10:00pm 13.3 8.7 12.4 94 0.5 E 28 32 15 17 1011.1 - 29.6
25/09:30pm 13.2 10.2 12.1 93 0.6 E 19 24 10 13 1010.9 - 29.6
25/09:00pm 13.4 10.9 12.3 93 0.6 E 17 26 9 14 1010.7 1010.7 29.2
25/08:30pm 13.4 12.4 12.3 93 0.6 ENE 9 11 5 6 1010.6 - 27.6
25/08:00pm 13.3 11.9 12.2 93 0.6 N 11 20 6 11 1010.5 - 27.4
25/07:30pm 12.5 11.2 11.2 92 0.7 WNW 9 15 5 8 1010.3 - 23.2
25/07:00pm 12.5 10.0 11.1 91 0.7 E 15 22 8 12 1009.7 - 15.6
25/06:30pm 13.6 10.6 12.0 90 0.9 ENE 19 28 10 15 1009.5 - 1.6
25/06:00pm 13.6 10.3 11.7 88 1.0 E 20 24 11 13 1009.2 1009.1 1.6
25/05:30pm 14.4 10.6 11.2 81 1.7 E 22 32 12 17 1008.8 - 0.6
25/05:00pm 15.3 15.0 11.5 78 2.1 S 4 9 2 5 1008.6 - 0.0
25/04:30pm 15.5 14.7 11.7 78 2.1 SW 7 9 4 5 1008.5 - 0.0
25/04:00pm 15.4 14.6 11.6 78 2.1 SW 7 11 4 6 1008.3 - 0.0
25/03:30pm 15.3 14.1 11.5 78 2.1 SW 9 11 5 6 1008.1 - 0.0
25/03:00pm 15.7 13.8 11.7 77 2.2 SW 13 15 7 8 1007.8 1007.7 0.0
25/02:30pm 16.0 14.2 12.0 77 2.2 WSW 13 17 7 9 1007.6 - 0.0
25/02:00pm 16.2 14.4 12.0 76 2.3 W 13 15 7 8 1007.5 - 0.0
25/01:30pm 16.2 14.3 11.8 75 2.4 W 13 17 7 9 1007.6 - 0.0
25/01:00pm 16.0 14.4 11.4 74 2.5 W 11 15 6 8 1007.5 - 0.0
25/12:30pm 17.1 15.4 12.6 75 2.5 WSW 13 15 7 8 1007.6 - 0.0
25/12:00pm 16.3 14.0 11.7 74 2.5 WSW 15 17 8 9 1007.9 1007.8 0.0
25/11:30am 17.6 14.6 12.7 73 2.7 WSW 20 24 11 13 1007.7 - 0.0
25/11:00am 17.4 14.7 13.5 78 2.2 W 20 24 11 13 1007.7 - 0.0
25/10:30am 15.9 12.9 12.6 81 1.8 W 20 24 11 13 1007.7 - 0.0
25/10:00am 15.7 13.1 13.2 85 1.4 W 19 24 10 13 1007.7 - 0.0
25/09:30am 15.7 13.2 13.4 86 1.3 W 19 24 10 13 1007.4 - 0.0
25/09:00am 15.4 12.3 13.4 88 1.1 W 22 26 12 14 1007.2 1007.1 0.6
25/08:30am 15.0 12.4 13.2 89 1.0 W 19 22 10 12 1006.9 - 0.6
25/08:00am 14.9 12.0 12.9 88 1.1 WNW 20 26 11 14 1006.6 - 0.6
25/07:30am 14.3 11.9 12.5 89 1.0 W 17 20 9 11 1006.4 - 0.6
25/07:00am 14.5 11.5 12.7 89 1.0 W 20 24 11 13 1006.0 - 0.6
25/06:30am 14.3 11.0 12.7 90 0.9 W 22 26 12 14 1005.9 - 0.6
25/06:00am 14.2 10.5 12.8 91 0.8 WSW 24 26 13 14 1005.6 1005.5 0.6
25/05:30am 14.5 11.6 13.0 91 0.8 W 20 24 11 13 1005.5 - 0.6
25/05:00am 14.3 11.0 12.9 91 0.8 W 22 26 12 14 1005.3 - 0.6
25/04:30am 14.4 10.7 12.8 90 0.9 W 24 28 13 15 1005.1 - 0.6
25/04:00am 14.2 11.2 12.6 90 0.9 W 20 24 11 13 1005.1 - 0.6
25/03:30am 14.3 11.0 12.7 90 0.9 W 22 28 12 15 1005.1 - 0.6
25/03:00am 14.3 10.6 12.7 90 0.9 W 24 30 13 16 1005.1 1005.0 0.6
25/02:30am 14.4 10.0 12.8 90 0.9 W 28 33 15 18 1005.1 - 0.6
25/02:00am 14.6 11.0 13.0 90 0.9 W 24 28 13 15 1005.2 - 0.6
25/01:30am 14.5 10.9 12.9 90 0.9 WSW 24 28 13 15 1005.0 - 0.6
25/01:00am 14.7 10.4 13.1 90 0.9 WSW 28 32 15 17 1004.9 - 0.6
25/12:30am 14.9 10.2 13.3 90 0.9 W 30 33 16 18 1004.8 - 0.6
25/12:00am 14.8 10.0 13.0 89 1.0 W 30 33 16 18 1004.6 1004.5 0.6
 
Date/Time
EST
Temp
°C
App
Temp
°C
Dew
Point
Rel
Hum
%
Delta-T
°C
Wind Press
QNH
hPa
Press
MSL
hPa
Rain
since 9 am
mm
Dir
 
Spd
km/h
Gust
km/h
Spd
kts
Gust
kts
24/11:30pm 14.8 8.7 13.0 89 1.0 WSW 37 44 20 24 1004.4 - 0.6
24/11:00pm 14.9 9.8 13.1 89 1.0 W 32 37 17 20 1004.4 - 0.6
24/10:30pm 15.0 10.7 13.2 89 1.0 W 28 32 15 17 1004.5 - 0.6
24/10:00pm 15.1 11.3 13.5 90 0.9 W 26 30 14 16 1004.3 - 0.6
24/09:30pm 15.1 11.3 13.6 91 0.8 W 26 30 14 16 1004.1 - 0.6
24/09:00pm 15.5 10.5 14.0 91 0.9 W 33 37 18 20 1003.8 1003.7 0.6
24/08:30pm 15.4 10.4 13.9 91 0.8 W 33 39 18 21 1003.6 - 0.6
24/08:00pm 15.2 9.3 13.6 90 0.9 W 37 43 20 23 1003.4 - 0.6
24/07:30pm 15.6 9.4 13.8 89 1.0 WNW 39 46 21 25 1003.2 - 0.6
24/07:00pm 15.6 7.2 13.4 87 1.2 W 50 57 27 31 1003.0 - 0.6
24/06:30pm 15.8 9.9 13.5 86 1.3 W 37 43 20 23 1003.0 - 0.6
24/06:00pm 15.8 9.5 13.6 87 1.2 WNW 39 46 21 25 1002.5 1002.3 0.6
24/05:30pm 15.7 9.8 13.7 88 1.1 W 37 43 20 23 1002.3 - 0.6

Other Formats:

Comma delimited format used in spreadsheet applications
http://www.bom.gov.au/fwo/IDV60801/IDV60801.94949.axf

JavaScript Object Notation format (JSON) in row-major order
http://www.bom.gov.au/fwo/IDV60801/IDV60801.94949.json